Flag for Ukraine Weather past 2 weeks in Simferopol, Ukraine

Now
86 °F

Partly sunny.


Feels Like: 86 °F
Forecast: 65 / 88 °F
Wind: 8 mph from Southwest

Location: Simferopol

Current Time: Jul 24, 2014 at 6:01:41 PM

Latest Report: Jul 24, 2014 at 5:30 PM


Visibility: N/A

Pressure: 29.74 "Hg

Humidity: 43%

Dew point: 61 °F

Location of SimferopolLocation

Historic Weather in Simferopol — Graph

°F

Simferopol temperature yesterday

Maximum temperature yesterday: 91 °F (at 3:00 PM)
Minimum temperature yesterday: 66 °F (at 5:00 AM)
Average temperature yesterday: 79 °F

Past Weeks' High & Low Weather Summary

 TemperatureHumidityPressure
High91 °F (Jul 11, 6:00 PM)94% (Jul 10, 5:00 AM)29.89 "Hg (Jul 10, 5:00 AM)
Low61 °F (Jul 10, 5:00 AM)20% (Jul 23, 3:00 PM)29.65 "Hg (Jul 11, 5:30 PM)
Average76 °F65%29.79 "Hg
* Reported Jul 9 4:00 PM — Jul 24 4:30 PM, Simferopol, Weather by CustomWeather, © 2014

Note: Actual official high and low records may vary slightly from our data, if they occured in-between our weather recording intervals... More about our weather records

Advertising

Simferopol weather history for previous 24 hours

 ConditionsComfort  
Time TempWeatherWind HumidityBarometerVisibility
4:30 PM
Jul 24
90 °FPartly sunny.No wind27%29.74 "HgN/A
4:00 PM91 °FPartly sunny.6 mph24%29.74 "HgN/A
3:30 PM90 °FPartly sunny.8 mph26%29.74 "HgN/A
3:00 PM91 °FPartly sunny.6 mph21%29.74 "HgN/A
2:30 PM90 °FPartly sunny.3 mph26%29.74 "HgN/A
2:00 PM90 °FThundershowers. Partly sunny.6 mph26%29.74 "HgN/A
1:51 PM90 °FThundershowers. Partly sunny.6 mph26%29.74 "HgN/A
1:30 PM88 °FPartly sunny.1 mph29%29.74 "HgN/A
1:00 PM88 °FPartly sunny.6 mph27%29.74 "HgN/A
12:30 PM84 °FMostly cloudy.8 mph33%29.74 "HgN/A
12:00 PM86 °FMostly cloudy.3 mph33%29.77 "HgN/A
11:30 AM84 °FMostly cloudy.6 mph37%29.77 "HgN/A
11:00 AM82 °FPartly sunny.3 mph42%29.77 "HgN/A
10:30 AM82 °FScattered clouds.6 mph45%29.77 "HgN/A
10:00 AM81 °FPassing clouds.6 mph45%29.74 "HgN/A
9:30 AM75 °FScattered clouds.3 mph61%29.74 "HgN/A
9:00 AM72 °FPartly sunny.No wind69%29.74 "Hg3 mi
8:30 AM72 °FScattered clouds.3 mph69%29.74 "HgN/A
8:00 AM72 °FSunny.6 mph73%29.77 "Hg10 mi
7:30 AM68 °FSunny.3 mph78%29.74 "Hg10 mi
6:30 AM66 °FClear.6 mph83%29.74 "Hg10 mi
6:00 AM66 °FClear.6 mph88%29.74 "Hg10 mi
5:30 AM68 °FClear.6 mph83%29.74 "Hg10 mi
5:00 AM66 °FClear.1 mph88%29.74 "Hg10 mi
4:30 AM68 °FClear.6 mph88%29.74 "Hg10 mi
4:00 AM68 °FClear.6 mph88%29.77 "Hg10 mi
3:30 AM70 °FClear.3 mph88%29.77 "Hg10 mi
3:00 AM70 °FClear.No wind88%29.77 "Hg10 mi
2:30 AM68 °FClear.6 mph88%29.77 "Hg10 mi
2:00 AM68 °FClear.3 mph83%29.77 "Hg10 mi
1:30 AM68 °FClear.6 mph83%29.77 "Hg10 mi
1:00 AM70 °FPassing clouds.3 mph88%29.77 "HgN/A
12:30 AM70 °FClear.6 mph88%29.77 "Hg10 mi
12:00 AM72 °FClear.3 mph83%29.77 "Hg10 mi
11:30 PM
Jul 23
73 °FClear.3 mph78%29.80 "Hg10 mi
11:00 PM75 °FClear.8 mph74%29.80 "Hg10 mi
10:30 PM75 °FClear.6 mph78%29.80 "Hg10 mi
10:00 PM75 °FSunny.6 mph74%29.77 "Hg10 mi
9:30 PM77 °FSunny.6 mph69%29.77 "Hg10 mi
9:00 PM81 °FSunny.6 mph58%29.77 "Hg10 mi
8:30 PM81 °FPassing clouds.6 mph58%29.77 "HgN/A
8:00 PM82 °FPassing clouds.8 mph55%29.77 "HgN/A
7:30 PM84 °FSunny.8 mph45%29.77 "Hg10 mi
7:00 PM84 °FSunny.8 mph45%29.77 "Hg10 mi
6:30 PM84 °FPassing clouds.13 mph48%29.74 "HgN/A
6:00 PM88 °FPassing clouds.13 mph46%29.74 "HgN/A
Weather by CustomWeather, © 2014

See weather overviewHow to use our weather pages